Regional Weather Roundup
Issued by NWS

Home | Current Version | Previous Version | Graphics & Text | Print | Product List | Glossary On
Versions: 1 2 3 4 5 6 7 8 9 10 11 12 13 14 15 16 17 18 19 20 21 22 23 24 25 26 27 28 29 30 31 32 33 34 35 36 37 38 39 40 41 42 43 44 45 46 47 48 49 50
000
ASUS43 KOAX 232310
RWRNE

WEATHER ROUNDUP FOR NEBRASKA
NATIONAL WEATHER SERVICE OMAHA NE
600 PM CDT SUN APR 23 2017

NOTES: SATELLITE DATA IS BEING USED TO AUGMENT CLOUD COVER ABOVE
       12000 FEET.
       "FAIR" INDICATES FEW OR NO CLOUDS BELOW 12,000 FEET WITH NO
       SIGNIFICANT WEATHER AND/OR OBSTRUCTIONS TO VISIBILITY.

  * THESE STATIONS DO NOT REPORT WEATHER SUCH AS RAIN...SNOW OR FOG.

NEZ001>004-019>022-054>056-240000-
NEBRASKA PANHANDLE

CITY           SKY/WX    TMP DP  RH WIND       PRES   REMARKS
SCOTTSBLUFF    CLOUDY    76  26  15 SE15      29.68F
ALLIANCE       CLOUDY    71  31  22 S20       29.70F
CHADRON        CLOUDY    75  33  21 SW8       29.63F
KIMBALL        CLOUDY    68  38  32 S16       29.75F
SIDNEY         CLOUDY    66  41  40 S21G28    29.75F
$$

NEZ057>060-069>072-079>082-240000-
SOUTHWEST NEBRASKA

CITY           SKY/WX    TMP DP  RH WIND       PRES   REMARKS
NORTH PLATTE   MOSUNNY   70  37  29 S18G35    29.78F
IMPERIAL       CLOUDY    69  37  30 S30G38    29.78F
LEXINGTON      CLOUDY    70  22  16 S24G37    29.84F
MCCOOK         CLOUDY    69  33  26 S28G38    29.83F
OGALLALA       CLOUDY    71  37  28 S23G30    29.76F
$$

NEZ005>010-023>029-035>040-094-240000-
NORTH CENTRAL NEBRASKA

CITY           SKY/WX    TMP DP  RH WIND       PRES   REMARKS
VALENTINE      MOSUNNY   74  29  19 S25G33    29.71F
AINSWORTH      CLOUDY    70  33  25 S23G31    29.75F
BROKEN BOW     SUNNY     71  24  17 S28G43    29.81F
O`NEILL        CLOUDY    71  17  13 S28G35    29.80F
ORD            SUNNY     69  23  17 S29G37    29.82F
THEDFORD       SUNNY     72  36  27 S25G36    29.78F
$$

NEZ041-046>049-061>064-073>077-083>087-240000-
SOUTH CENTRAL NEBRASKA

CITY           SKY/WX    TMP DP  RH WIND       PRES   REMARKS
GRAND ISLAND   CLOUDY    70  26  19 S21G32    29.89F
AURORA         SUNNY     70  25  18 S22G32    29.90F
HASTINGS       MOSUNNY   68  26  20 S18G28    29.90F
HEBRON         MOSUNNY   68  30  24 S16G26    29.95F
HOLDREGE       CLOUDY    68  26  20 S30G37    29.87F
KEARNEY *      CLOUDY    68  27  21 S29G38    29.87F
YORK           CLOUDY    70  23  17 S25G35    29.91F
$$

NEZ011>018-030>034-042>045-240000-
NORTHEAST NEBRASKA

CITY           SKY/WX    TMP DP  RH WIND       PRES   REMARKS
NORFOLK        SUNNY     72  23  16 S24G35    29.85F
ALBION         SUNNY     72  22  15 S26G35    29.86F
BLAIR          CLOUDY    72  28  19 S22G30    29.93F
FREMONT        SUNNY     71  30  21 S14G26    29.92F
TEKAMAH        MOSUNNY   73  29  19 S23G31    29.91F
WAYNE          SUNNY     71  26  18 S26G37    29.86F
$$

NEZ050>053-065>068-078-088>093-240000-
SOUTHEAST NEBRASKA

CITY           SKY/WX    TMP DP  RH WIND       PRES   REMARKS
LINCOLN        MOSUNNY   71  30  21 S22G31    29.94F
OMAHA EPPLEY   CLOUDY    72  27  18 S18       29.93F
BEATRICE       CLOUDY    69  33  27 S14       29.97F
FALLS CITY     SUNNY     68  34  28 S9        29.98F
NEBRASKA CITY  SUNNY     70  16  12 S17G23    29.97F
PLATTSMOUTH    SUNNY     71  11  10 S20G26    29.96F
$$

NEZ044-045-051>053-067-240000-
OMAHA AREA

CITY           SKY/WX    TMP DP  RH WIND       PRES   REMARKS
OMAHA EPPLEY   CLOUDY    72  27  18 S18       29.93F
BLAIR          CLOUDY    72  28  19 S22G30    29.93F
FREMONT        SUNNY     71  30  21 S14G26    29.92F
MILLARD        SUNNY     72  31  22 S10G22    29.94F
OFFUTT AFB     SUNNY     72  29  20 S10       29.94F
PLATTSMOUTH    SUNNY     71  11  10 S20G26    29.96F
WAHOO          FAIR      72  25  17 S18       29.93F
$$



USA.gov is the U.S. government's official web portal to all federal, state and local government web resources and services.